Regional Weather Roundup
Issued by NWS

Home | Current Version | Previous Version | Text Only | Print | Product List | Glossary On
Versions: 1 2 3 4 5 6 7 8 9 10 11 12 13 14 15 16 17 18 19 20 21 22 23 24 25 26 27 28 29 30 31 32 33 34 35 36 37 38 39 40 41 42 43 44 45 46 47 48 49 50
000
ASUS46 KPQR 060510
RWROR

OREGON REGIONAL WEATHER ROUNDUP
NATIONAL WEATHER SERVICE PORTLAND OR
1000 PM PDT SUN JUL 05 2015

NOTE: "FAIR" INDICATES FEW OR NO CLOUDS BELOW 12,000 FEET WITH
NO SIGNIFICANT WEATHER AND/OR OBSTRUCTIONS TO VISIBILITY.

ORZ001>013-060600-
NORTHWEST OREGON


CITY           SKY/WX    TMP DP  RH WIND       PRES   REMARKS
ASTORIA        CLOUDY    59  56  89 VRB3      29.95R
NEWPORT        CLOUDY    54  54 100 S10       30.00R FOG
PORTLAND       PTCLDY    79  62  56 NW6       29.87R
VANCOUVER WA   CLEAR     77  58  51 NW6       29.87R
SCAPPOOSE      CLEAR     73  58  59 N12       29.86R
HILLSBORO      CLEAR     78  57  48 W7        29.86R
AURORA         CLEAR     75  54  47 SW6       29.88R
MCMINNVILLE    CLEAR     69  53  56 VRB5      29.89R
SALEM          CLEAR     76  53  44 SW5       29.88R
CORVALLIS      PTCLDY    66  55  68 W12       29.92R
EUGENE         MOCLDY    70  52  52 CALM      29.93R
$$

ORZ021-028-060600-
SOUTHWEST OREGON


CITY           SKY/WX    TMP DP  RH WIND       PRES   REMARKS
NORTH BEND     CLOUDY    57  55  94 CALM      29.98S
BROOKINGS      CLOUDY    58  58 100 SE6       29.99R
ROSEBURG       PTCLDY    79  55  43 N6        29.90R
SEXTON SUMMIT  MOCLDY    71  48  43 SW5       30.07R
MEDFORD        MOCLDY    82  56  40 S6        29.90R
$$

ORZ014>016-041-060600-
COLUMBIA GORGE


CITY           SKY/WX    TMP DP  RH WIND       PRES   REMARKS
TROUTDALE      CLEAR     84  55  36 W3        29.84R
THE DALLES     CLEAR     88  48  25 NW13      29.81R
$$

ORZ029>031-041-044-049-050-061>064-502-503-505>511-060600-
EASTERN OREGON


CITY           SKY/WX    TMP DP  RH WIND       PRES   REMARKS
REDMOND        PTCLDY    79  41  25 NW9       30.00R
BEND             N/A    N/A N/A N/A MISG        N/A
PRINEVILLE     MOCLDY    79  41  25 W10G16    30.01R
KLAMATH FALLS  CLOUDY    68  49  50 SE8       30.09R
LAKEVIEW       CLOUDY    64  48  55 N17G24    30.17R
HERMISTON      CLEAR     83  47  28 NE3       29.80R
PENDLETON      CLEAR     75  37  25 N6        29.86R
JOHN DAY       MOCLDY    79  36  21 NW5       30.01R
MEACHAM        CLEAR     63  49  60 CALM      30.03R
LA GRANDE      CLEAR     75  37  25 N7        29.94R
BAKER CITY     PTCLDY    67  43  41 CALM      30.00R
BURNS          CLOUDY    66  46  48 CALM      30.07R
ROME             N/A     73  48  41 SE6       30.08R
ONTARIO        MOCLDY    73  57  57 CALM      29.92R
$$


USA.gov is the U.S. government's official web portal to all federal, state and local government web resources and services.